sat.trackr.live / text

‹ back to catalog

ASTROCAST-0403

NORAD 55111 · 2023-001DG

PAYLOAD ACTIVE UNKNOWN

§ Identity

Operator
Country
SWTZ
Launch date
2023-01-03
Launch site
AFETR
Launch vehicle
Mass (kg)
RCS (m²)

External: N2YO · Heavens-Above · Gunter

§ Orbital elements

Epoch: 2026-09-21T18:52:16.313952Z

Period
93.80 min
Inclination
97.5604°
Eccentricity
0.0003609
Mean motion
15.35258829 rev/d
Perigee alt
457.7 km
Apogee alt
462.6 km
Semi-major
6,838.3 km
B*
5.3533e-4
RAAN
1.1417°
Arg perigee
356.7682°
Mean anomaly
3.3537°
Rev number
15,936

§ Raw data

ASTROCAST-04031 55111U 23001DG  26264.78629993  .00018269  00000+0  53533-3 0  99992 55111  97.5604   1.1417 0003609 356.7682   3.3537 15.35258829159368

JSON: /api/v1/satellites/55111 · /tle

For live sub-satellite position, see the globe view (requires WebGL).

§ Visibility from observer

Set your observer location to see the next 7 days of passes ≥ 10°. The values pass through the URL so the page stays shareable.

No JS? Fill the form by hand. The geolocation button needs JavaScript.